Theta_e
289 289 290 290 289 289 289 289 289 289 290 291 290 290 291 291 291 291 291 292 292 292 292 293 293 294 294 294 294 294 294 294 294 294 293 292 292 292 292 291 291 291 291 290 291 290 290 289 289 290 290 289 289 290 290 290 290 290 290 290 290 290 290 289 287 286 285 287 287 286 286 286 285 285 284 284 282 283 285 285 284 283 283 283 284
288 289 289 290 289 289 289 289 289 289 288 288 288 289 289 290 291 291 290 291 291 291 291 292 292 292 292 293 293 294 294 294 293 293 292 292 291 292 291 291 290 290 290 289 290 290 290 289 289 289 289 289 289 289 289 289 289 288 288 289 289 289 290 289 288 287 282 284 285 285 285 286 283 285 283 283 282 282 281 282 283 282 282 282 283
289 289 289 288 288 288 288 288 288 288 288 288 287 288 288 288 290 289 290 290 290 290 290 291 291 291 291 292 292 292 293 293 293 292 292 291 291 291 291 290 289 289 289 289 289 289 289 288 288 288 289 288 288 288 288 288 288 288 287 288 288 288 288 289 287 286 284 282 284 283 283 284 283 283 284 284 283 282 281 281 281 282 283 282 282
288 288 288 288 288 287 287 287 287 286 286 287 287 288 288 288 289 288 289 289 288 289 289 289 290 290 290 290 290 291 291 292 292 292 291 291 290 290 290 289 289 289 289 288 289 288 288 287 288 288 288 287 287 287 287 288 287 287 287 287 287 287 287 287 287 286 285 282 283 282 283 282 283 284 284 284 283 282 282 282 282 282 282 283 282
287 287 287 287 287 287 287 286 286 286 286 287 287 287 288 288 288 288 288 288 289 288 288 288 288 288 288 289 289 289 289 290 290 290 291 290 290 290 289 289 289 289 288 288 288 288 288 287 287 287 287 286 286 286 286 286 287 286 286 286 286 287 286 286 286 286 284 283 282 282 283 282 283 283 283 281 281 281 281 281 281 281 281 282 282
287 287 287 287 287 286 286 286 286 286 286 286 286 287 287 287 287 287 288 287 288 288 288 288 287 287 287 287 287 288 288 288 288 289 289 289 289 289 289 289 288 288 288 288 288 288 288 287 287 287 286 286 286 286 286 285 286 285 285 285 286 285 285 284 285 284 284 283 282 280 281 280 280 281 282 281 280 279 279 280 280 281 281 281 281
286 286 286 286 286 285 285 285 286 286 286 286 287 287 287 287 287 286 287 287 287 287 287 288 288 288 288 288 287 287 287 287 287 287 288 288 288 288 288 288 288 288 288 288 288 288 288 287 287 287 286 286 286 286 285 285 285 284 285 285 285 284 284 284 283 283 283 282 281 281 280 281 281 279 280 281 280 280 278 278 278 280 281 280 280
285 286 285 285 285 285 285 286 286 286 286 286 286 286 286 287 287 287 287 286 286 286 286 286 287 287 287 287 288 288 287 286 286 287 288 288 287 287 287 287 287 287 287 288 288 287 287 287 287 287 287 287 286 286 286 285 285 284 284 284 284 284 283 283 283 282 282 282 281 280 280 279 279 280 280 279 278 279 280 279 277 278 279 280 280
284 285 284 284 284 285 285 286 286 285 285 285 285 285 285 286 287 287 286 286 287 286 286 286 286 286 287 287 287 287 287 287 287 286 286 286 287 287 287 287 287 286 286 287 287 287 287 287 287 287 287 286 287 287 287 287 285 284 284 284 284 283 283 283 283 282 282 282 281 280 279 278 278 278 277 277 277 277 279 280 279 279 280 279 280
284 284 283 283 284 284 285 285 285 285 285 284 284 284 284 285 286 286 286 286 286 286 286 285 285 285 286 286 286 287 287 288 287 288 288 286 286 286 286 286 286 286 286 286 286 286 286 286 287 286 286 286 286 287 287 288 287 286 285 284 284 283 283 283 283 282 282 281 282 280 279 278 278 278 277 278 279 279 279 279 278 280 280 279 280
283 283 283 284 284 284 284 284 284 284 284 284 283 283 283 284 285 285 285 285 285 285 285 285 285 285 285 285 285 286 287 287 288 290 290 290 288 286 285 285 286 285 285 285 285 286 286 286 286 286 285 285 285 286 287 288 287 288 287 287 286 284 283 282 282 283 282 281 282 281 280 279 279 279 279 278 279 278 279 279 279 280 278 277 276
283 283 283 283 283 283 283 283 283 283 283 282 282 281 282 283 284 285 285 285 284 284 284 284 284 284 284 284 284 285 285 287 288 289 289 289 289 287 286 286 285 285 285 285 285 285 285 286 286 286 285 285 285 285 286 287 287 287 287 287 287 287 287 284 283 282 282 282 281 281 281 280 280 279 279 279 278 279 279 279 279 279 278 277 277
283 283 283 283 283 283 283 282 282 282 282 281 281 280 280 281 282 284 284 284 284 283 283 283 283 284 284 283 283 284 285 287 287 288 288 288 288 288 287 286 286 285 285 285 285 285 285 285 285 285 286 285 285 284 284 284 286 287 287 287 287 287 288 288 288 285 284 283 282 282 282 281 280 279 280 280 281 278 280 279 279 279 279 278 279
283 282 282 282 282 282 282 282 281 281 281 280 280 279 279 279 281 283 284 284 283 282 282 282 283 283 283 283 283 283 283 285 287 287 287 288 288 288 286 286 286 286 286 285 285 285 285 285 284 284 285 285 285 284 284 283 283 283 284 284 284 285 286 287 287 287 286 284 283 282 283 283 281 281 281 282 280 279 279 279 280 279 279 279 279
282 282 281 281 281 281 281 281 281 281 280 280 279 278 278 278 279 281 282 282 281 280 281 281 282 282 282 282 282 282 283 285 286 287 287 287 287 287 286 286 286 286 286 286 286 285 285 285 285 284 284 284 284 284 283 283 283 282 283 283 283 283 283 283 284 284 284 284 283 283 284 283 283 282 282 282 281 281 281 280 280 280 279 279 278
281 281 281 281 281 281 280 280 280 280 279 279 278 277 277 277 277 279 281 281 280 280 280 280 280 280 280 281 281 281 282 285 285 286 287 287 287 285 285 285 285 285 285 286 286 286 286 285 285 284 284 284 285 287 286 284 282 282 281 282 282 283 283 284 286 286 284 284 283 283 283 283 285 282 282 282 282 282 281 280 279 278 277 276 274
280 280 280 280 280 280 280 279 279 279 278 277 276 276 276 276 277 278 279 279 278 278 277 277 278 279 279 279 279 280 281 283 285 285 286 286 286 284 284 284 284 284 285 285 286 286 286 286 285 285 284 284 286 287 287 286 282 281 281 280 281 281 282 283 285 286 287 286 285 285 285 286 286 286 286 286 283 282 279 277 276 277 275 274 274
280 280 280 280 280 280 279 279 278 278 277 276 276 276 276 276 276 277 277 276 276 276 276 276 276 277 278 278 279 279 280 282 284 284 285 285 285 283 283 283 283 283 284 285 285 286 286 286 285 285 284 284 286 287 287 286 282 281 281 280 280 280 281 282 282 283 286 285 284 284 285 285 286 286 286 286 285 283 278 276 276 276 275 275 273
279 279 279 279 279 279 278 278 278 277 276 276 275 274 274 274 275 276 276 275 274 275 275 274 274 275 276 277 279 279 280 281 283 283 284 285 284 283 283 282 282 282 283 283 285 285 285 286 285 285 285 285 286 287 287 286 283 282 281 280 279 279 280 281 280 280 281 280 280 281 281 284 283 283 284 285 285 283 280 279 278 276 275 275 274
278 278 278 278 277 277 277 276 276 276 275 274 274 274 274 274 274 274 274 274 273 273 273 273 272 273 275 276 276 277 277 278 280 283 283 284 285 283 283 282 281 281 282 283 283 284 285 285 286 287 288 288 287 286 286 287 283 282 282 280 279 279 281 280 280 280 280 279 279 280 279 281 281 281 282 282 282 280 279 279 278 277 276 275 274
276 276 276 275 275 274 275 275 274 274 274 273 273 273 273 273 273 272 272 271 271 271 270 271 271 271 272 273 273 274 276 277 279 282 283 284 285 284 282 281 281 281 281 282 282 283 283 284 284 286 287 288 287 286 286 286 286 283 282 280 280 281 282 279 279 281 279 279 279 279 279 280 280 280 280 280 280 279 278 279 277 277 277 275 273
273 273 273 272 272 272 272 272 272 272 272 272 271 271 272 272 271 271 271 270 269 268 269 269 269 269 270 271 273 274 276 278 278 281 283 284 284 285 282 281 282 281 281 281 282 282 283 284 284 285 286 287 287 287 286 286 286 284 283 284 284 284 282 280 280 280 279 278 278 278 278 278 278 278 278 279 278 278 277 276 277 276 277 276 275
270 270 270 269 269 269 269 269 270 270 270 270 270 269 270 269 269 269 268 268 267 267 267 267 268 268 270 271 272 274 275 277 280 280 282 283 284 284 285 283 284 283 281 280 281 282 283 283 284 285 286 286 286 287 287 286 285 284 286 286 285 284 283 280 279 278 278 277 277 276 277 277 277 277 276 276 276 277 276 275 275 275 275 274 274
267 267 266 266 266 266 266 267 267 268 268 268 268 267 267 267 267 268 267 267 266 266 267 267 268 268 268 269 272 274 275 277 279 281 281 283 284 284 285 285 285 282 282 281 281 282 282 283 284 286 286 285 285 286 286 286 284 285 286 286 285 284 282 280 278 278 277 277 276 276 276 276 276 276 275 274 273 273 273 274 273 273 273 273 273
263 263 262 262 263 263 264 264 264 265 265 266 265 266 266 266 265 266 266 266 266 265 266 267 266 267 268 269 270 272 274 275 277 279 282 283 283 284 284 285 285 285 283 282 283 282 284 285 285 286 285 285 285 285 285 285 285 285 285 285 284 282 281 279 278 277 276 276 275 275 275 276 276 275 274 273 273 273 272 272 272 273 272 272 272
260 260 260 261 261 261 261 261 262 263 263 264 264 265 265 265 265 265 265 265 265 265 265 266 266 267 267 268 269 270 272 274 275 277 279 281 282 283 283 284 284 284 284 282 284 284 285 285 285 285 285 284 283 282 282 282 284 284 284 284 283 282 280 279 278 277 276 276 276 275 275 275 275 274 274 273 272 270 271 270 269 269 269 268 267
259 259 259 259 260 260 259 260 260 261 262 262 263 264 264 264 264 264 264 264 264 264 265 265 265 266 266 267 268 270 271 272 273 274 276 277 278 280 280 281 282 283 282 282 282 282 283 283 283 284 284 284 283 283 283 283 282 282 282 282 282 282 280 279 277 277 276 276 275 275 274 274 274 273 271 271 270 270 270 269 268 267 267 267 266
258 258 258 259 259 259 259 260 260 260 261 261 261 261 262 263 262 262 262 263 262 263 263 264 264 265 265 266 267 268 269 270 271 273 275 276 278 279 279 279 278 279 279 280 280 280 281 282 283 282 283 281 281 281 280 280 280 280 280 281 281 281 281 280 279 278 277 277 276 274 273 272 271 271 271 270 269 269 269 268 268 267 267 266 264
258 258 258 258 258 259 259 259 259 259 260 260 260 261 261 261 261 261 262 263 263 262 262 262 263 264 264 265 265 265 266 267 269 274 274 276 275 275 276 277 278 278 279 281 279 279 280 279 279 280 280 279 278 278 278 279 279 279 279 280 280 280 279 278 276 276 276 275 274 272 271 271 270 270 269 269 268 268 269 267 267 266 266 266 264
257 257 258 258 258 258 259 259 259 259 259 259 259 260 263 266 264 262 262 266 268 270 269 264 265 265 265 265 266 265 265 267 272 274 275 276 277 278 279 280 281 280 280 281 281 278 278 278 278 278 278 278 277 277 277 277 277 278 278 279 279 279 278 277 276 276 275 274 273 271 270 270 269 269 268 268 267 266 267 267 266 266 265 264 264
257 257 257 257 258 258 258 258 258 258 258 259 259 259 259 261 266 267 268 267 268 269 270 271 271 272 268 267 269 273 273 274 275 275 276 277 278 278 279 280 281 282 282 280 278 277 277 277 277 277 277 277 276 276 277 277 277 277 277 278 278 278 277 276 275 275 274 273 272 270 269 269 268 268 267 266 265 265 266 266 266 265 265 265 264
256 256 256 257 257 257 257 257 258 258 258 259 258 258 258 258 259 264 267 268 268 269 269 270 270 271 271 270 269 268 272 274 275 276 276 277 277 278 279 280 280 281 282 282 278 277 277 276 277 276 276 276 276 277 277 277 277 277 277 277 277 277 275 274 275 274 273 272 271 269 269 268 268 267 267 266 265 264 264 264 264 264 265 265 265
256 256 256 256 257 257 257 257 257 258 258 258 258 258 258 258 257 258 261 266 267 268 268 269 270 270 270 271 271 271 271 272 273 274 275 276 277 278 279 280 280 280 281 279 278 277 277 277 276 276 276 275 276 276 277 277 277 277 277 276 276 274 274 274 275 273 272 271 270 269 268 267 267 267 266 265 265 263 264 263 264 264 265 264 264
256 256 256 256 256 256 257 257 257 258 258 258 258 258 258 258 258 258 258 258 260 263 266 267 268 269 269 269 270 270 271 271 272 273 274 275 275 276 276 275 279 281 280 277 278 277 277 277 276 276 276 276 276 276 276 277 277 276 276 276 274 273 273 273 272 271 270 270 269 268 267 267 266 265 264 264 264 264 263 264 264 263 263 263 263
256 257 257 257 257 257 257 257 258 258 258 258 258 258 258 259 259 258 258 257 257 258 258 260 264 267 265 266 268 270 270 271 272 273 273 274 275 276 276 274 274 275 277 278 278 278 277 277 276 276 276 276 276 276 276 276 276 275 274 273 272 272 271 271 270 269 269 269 268 267 267 266 266 265 265 264 264 263 263 264 263 264 263 263 263
256 256 256 257 257 257 257 258 258 258 258 258 258 258 258 258 258 258 258 259 258 258 259 260 261 265 268 269 270 271 271 272 272 273 274 274 275 275 271 271 272 274 275 276 277 278 278 278 277 277 276 276 276 276 276 276 275 274 273 272 271 270 270 269 269 268 268 268 267 266 266 266 265 265 265 264 264 264 264 264 264 264 264 264 264
256 256 256 257 257 257 257 258 258 258 259 258 258 258 258 258 259 259 258 258 258 259 259 260 260 261 264 264 266 269 271 271 272 273 273 274 275 274 271 271 272 273 274 275 277 278 277 278 278 277 276 276 276 276 276 274 274 273 272 271 270 269 269 269 268 267 267 266 266 266 265 265 265 264 264 263 263 264 264 264 263 264 264 264 264
256 256 257 257 257 257 257 258 258 259 259 259 259 259 258 258 258 258 258 258 259 259 259 260 261 261 261 262 266 265 266 269 270 270 271 273 274 273 272 272 273 273 275 276 277 278 278 278 278 277 276 276 276 276 274 273 272 271 270 269 268 268 270 269 268 267 267 266 265 265 265 264 264 264 264 263 263 263 263 263 263 263 263 264 263
257 258 258 259 260 258 258 258 258 258 258 259 259 258 258 258 258 258 258 259 259 259 259 260 260 260 261 262 262 264 265 264 264 265 266 269 273 274 274 274 274 275 276 277 278 278 278 278 276 277 276 276 275 274 273 271 271 269 268 267 267 267 268 266 266 266 265 265 265 264 264 264 264 264 264 263 263 263 263 263 263 263 262 262 263
257 257 258 259 258 258 258 258 258 258 259 258 258 259 259 258 258 258 258 258 258 259 259 259 259 260 261 262 262 263 263 263 264 265 267 268 270 273 274 274 274 275 276 277 278 278 278 276 276 276 276 275 274 273 272 270 269 268 268 267 266 266 266 266 265 265 264 264 264 264 263 263 263 263 263 263 263 263 263 263 263 263 263 263 263
256 257 257 258 258 258 258 258 258 259 259 259 259 259 259 259 259 259 259 259 259 259 259 259 260 261 262 263 267 268 265 265 266 267 268 269 271 272 273 274 275 275 277 277 277 277 276 275 275 274 274 273 272 271 270 269 268 268 267 266 266 265 265 265 265 264 264 264 264 263 263 263 263 263 262 263 265 264 263 263 263 263 264 264 264
256 256 257 257 258 259 259 259 259 260 260 259 259 259 259 259 259 259 259 259 259 260 260 260 261 262 264 266 268 269 267 267 268 269 271 271 272 273 273 274 274 276 277 276 275 274 273 272 272 272 271 270 270 269 269 268 267 267 266 266 265 264 264 264 264 264 264 264 263 263 262 262 262 263 263 265 262 262 263 263 263 263 263 263 263
256 257 258 258 259 259 259 259 260 260 260 260 260 261 261 260 260 260 260 260 260 260 260 260 261 262 263 267 267 269 267 268 269 270 270 270 269 270 270 271 272 273 273 273 273 273 272 272 271 271 270 270 270 269 268 267 267 267 266 266 265 264 264 264 264 264 264 263 262 262 262 263 263 262 263 262 262 262 262 263 263 263 263 263 263
257 257 258 258 258 259 260 260 260 260 260 261 261 261 262 262 262 261 261 261 261 261 261 261 262 263 263 265 267 268 268 268 268 267 267 266 266 267 268 269 269 270 271 271 271 271 271 271 270 270 270 270 269 269 268 268 267 267 266 265 264 264 264 263 263 263 263 262 261 261 261 261 262 262 262 262 262 262 262 262 262 262 262 262 263
257 257 257 257 258 258 259 259 260 260 260 261 261 261 262 262 262 263 263 262 262 262 263 263 264 264 265 265 266 265 264 264 264 264 263 264 264 264 264 265 267 268 268 269 270 270 270 270 269 268 267 266 266 266 267 267 267 267 267 266 264 263 263 263 263 264 263 262 261 261 261 261 261 262 262 262 262 262 262 262 262 262 262 262 262
256 257 257 257 257 258 258 258 259 259 259 259 260 260 261 261 261 262 262 262 262 262 262 263 262 262 262 261 262 262 261 261 261 262 261 261 261 262 263 263 264 263 263 264 265 266 266 266 265 265 264 264 265 266 266 267 267 266 266 266 265 265 264 264 263 263 262 262 261 261 261 261 261 262 262 261 261 262 261 261 262 262 262 262 262
256 256 257 257 257 257 258 258 258 258 258 259 259 259 259 260 260 261 261 261 261 261 261 261 261 260 260 260 260 259 259 259 259 260 260 260 260 260 260 261 262 262 262 262 263 263 263 263 263 263 263 264 264 263 263 264 264 265 264 264 263 262 262 262 262 262 262 262 262 261 261 261 260 261 261 261 261 261 261 261 261 261 261 262 262
255 256 256 256 257 257 257 257 257 258 257 258 258 258 259 259 259 259 259 259 259 259 259 259 259 259 259 259 259 258 258 258 258 258 258 258 259 259 259 260 260 260 260 260 260 261 261 261 262 262 261 261 261 261 261 261 261 261 261 262 262 262 261 262 262 262 262 262 262 262 261 261 260 260 261 261 261 261 260 260 261 261 261 261 262
255 255 255 255 256 256 256 256 256 256 256 257 257 257 257 258 258 258 258 258 258 258 258 258 258 258 258 257 257 257 257 257 257 257 257 257 257 257 258 258 258 258 258 258 258 259 259 259 259 260 260 260 259 259 259 258 258 259 259 260 261 262 261 261 261 261 261 261 261 261 261 261 260 260 260 260 261 261 261 261 261 261 262 262 262
255 255 255 255 255 255 256 256 256 256 256 256 256 256 256 257 257 257 257 257 257 257 257 257 257 257 257 257 257 256 256 256 256 256 256 256 256 257 257 257 257 257 257 257 257 257 258 258 258 258 258 258 258 257 257 258 258 259 259 261 261 261 260 260 260 260 260 260 260 260 260 260 260 260 260 260 260 260 260 260 261 261 261 261 262
254 254 254 255 255 255 255 255 255 255 255 255 255 255 255 255 256 256 256 256 256 256 257 257 257 257 257 257 257 257 256 256 256 256 256 256 256 256 256 256 256 257 257 257 257 257 257 257 257 257 256 256 256 256 256 258 259 259 260 260 260 259 259 259 258 259 259 259 259 259 259 259 259 258 259 259 259 259 260 260 261 261 261 262 262
Wind_Speed
7 6 6 6 6 8 8 7 8 7 7 6 6 6 6 6 6 5 6 6 6 6 5 4 5 5 6 6 6 7 7 7 7 7 8 8 8 9 9 10 12 12 11 12 11 12 13 14 14 14 12 13 12 10 11 11 10 10 9 9 10 9 9 10 10 5 1 2 5 6 9 10 8 8 9 7 7 8 7 5 6 5 4 3 3
7 7 6 6 7 6 6 5 5 6 6 6 7 7 8 7 7 7 7 6 6 7 6 4 3 4 5 6 7 7 7 7 7 7 8 8 9 7 8 10 11 12 11 13 12 11 12 15 16 14 11 13 13 13 12 11 11 11 11 10 10 9 9 9 10 8 6 3 4 5 7 8 8 8 10 9 8 7 7 5 4 4 4 3 3
6 6 6 6 6 6 5 5 4 4 4 4 6 6 7 8 8 8 7 7 7 6 6 6 5 5 5 5 6 7 7 8 6 7 8 9 9 9 9 10 11 12 12 14 13 12 13 15 16 14 10 13 14 14 12 13 12 13 14 11 12 11 10 10 9 10 8 7 6 8 8 8 8 10 9 7 6 7 8 6 5 4 3 4 3
6 5 5 5 4 5 5 6 6 6 7 6 7 6 6 6 6 7 6 6 7 6 6 6 6 6 6 6 6 7 7 7 7 7 8 8 9 10 10 10 12 13 13 13 13 13 14 14 15 14 12 14 15 14 13 13 13 13 14 13 12 12 10 9 11 10 6 9 7 8 8 9 7 6 6 5 7 7 6 5 4 4 4 4 4
5 6 5 6 5 5 5 5 6 7 8 6 7 7 6 6 6 7 7 6 6 6 6 6 6 6 5 6 7 7 7 7 7 7 7 7 9 10 10 10 11 12 13 13 13 13 14 15 15 12 12 14 15 14 13 14 13 12 13 13 12 12 9 10 11 10 7 9 7 5 7 6 5 6 8 9 6 5 4 6 6 5 5 5 4
5 5 5 5 5 6 5 5 6 6 7 7 7 7 7 6 6 6 7 7 7 6 7 6 6 7 6 6 6 7 7 7 7 7 7 7 8 9 10 10 11 11 12 13 13 13 14 14 14 12 13 15 16 14 13 14 12 12 14 13 12 11 11 10 10 10 10 6 10 7 8 9 8 7 10 10 9 8 6 5 4 5 5 5 5
5 5 5 5 4 5 5 6 6 6 6 6 6 6 6 6 5 6 6 6 6 7 7 6 6 6 7 6 6 6 7 7 8 8 8 8 9 10 10 10 11 11 11 12 12 13 15 15 14 13 15 16 16 15 14 13 12 15 15 13 12 11 11 11 10 11 11 8 7 9 9 8 9 10 9 9 7 7 8 7 6 6 5 5 6
5 5 5 5 5 5 5 5 6 6 6 7 6 7 7 6 6 6 6 6 7 7 7 7 7 6 6 6 7 6 6 6 7 7 8 9 9 10 10 11 11 12 12 12 12 13 13 14 15 15 15 15 15 14 13 14 12 14 13 12 11 12 12 10 10 11 11 11 9 10 9 10 8 4 6 8 8 7 8 8 8 8 8 8 7
6 6 6 6 6 6 6 5 5 6 6 6 7 8 8 8 8 7 6 6 5 5 6 7 7 7 6 6 6 5 5 6 5 6 6 7 8 10 11 12 12 12 12 12 13 13 13 12 13 13 15 18 20 18 16 14 11 13 13 12 12 12 12 11 10 10 10 11 9 8 9 9 10 11 10 10 14 14 11 9 8 7 6 5 6
8 8 8 7 7 7 7 6 6 7 7 7 7 8 8 8 8 8 8 7 7 6 6 6 6 6 7 7 6 5 5 4 7 12 11 8 8 8 9 10 11 13 13 14 13 13 13 13 12 16 17 19 21 21 20 20 20 17 12 11 12 12 13 12 12 11 11 12 12 11 11 12 13 14 13 13 10 7 9 10 9 8 7 7 5
8 8 9 8 8 8 8 7 7 7 7 7 5 7 11 9 8 7 7 6 8 7 7 8 6 6 7 7 7 6 5 5 8 9 12 16 12 9 9 10 10 12 13 14 15 14 13 13 12 13 15 16 17 20 20 22 22 23 22 18 15 14 13 14 14 13 13 13 12 11 13 14 14 13 12 12 11 13 12 11 10 8 9 10 10
7 8 8 9 9 9 8 8 8 7 7 5 6 7 7 8 8 8 9 8 7 7 9 8 9 8 7 7 7 7 7 8 11 12 13 14 13 10 9 9 9 11 11 13 13 13 13 13 13 10 11 13 13 13 18 22 23 23 23 22 21 21 21 17 15 13 13 14 13 14 13 14 14 12 11 11 12 10 10 11 12 13 11 11 9
6 7 7 7 8 8 8 7 6 5 4 4 4 6 8 8 9 8 7 7 8 8 10 10 10 9 8 9 8 8 8 9 12 14 14 14 16 14 9 9 10 10 12 12 13 13 12 12 12 11 10 15 13 13 13 14 19 23 23 23 24 25 24 26 24 17 14 15 15 16 16 14 13 13 14 14 12 14 13 11 12 12 11 10 10
7 7 7 7 7 7 8 7 8 8 7 6 5 6 7 8 9 8 9 8 7 8 9 10 9 10 9 10 11 10 9 10 14 14 15 16 16 14 8 10 10 11 13 13 12 13 13 12 13 12 11 11 10 12 12 12 11 12 15 16 16 20 24 26 26 26 20 16 16 18 15 13 14 14 14 15 16 15 13 13 13 12 12 12 7
7 7 8 8 7 5 6 7 8 8 8 7 8 9 10 10 10 9 8 7 8 9 10 9 8 9 9 10 10 11 10 15 16 17 17 17 17 15 9 9 10 10 12 12 13 13 13 13 14 15 13 10 11 13 12 10 9 10 12 14 16 16 16 17 19 18 17 15 15 16 12 12 15 12 12 13 15 13 13 14 13 10 6 8 7
9 8 8 9 8 8 8 9 9 7 6 6 8 10 10 10 11 11 9 8 8 9 9 8 10 12 11 10 10 12 13 17 17 17 17 17 18 9 8 9 10 10 11 12 12 12 13 13 14 14 14 13 15 19 16 11 9 11 14 14 14 14 15 15 15 17 18 16 16 15 12 10 11 12 13 13 11 8 8 8 8 9 10 9 9
9 10 9 10 9 11 11 10 10 9 6 8 10 10 10 11 11 8 10 10 10 10 10 10 10 11 12 12 12 13 12 15 17 17 17 17 13 8 9 9 10 11 12 12 11 12 13 13 14 14 15 14 14 16 17 17 11 13 14 15 14 13 15 13 13 17 12 9 12 12 11 12 14 16 18 19 14 12 11 11 12 11 11 11 8
11 10 12 10 12 11 9 9 10 11 10 11 11 8 8 8 10 9 10 10 11 11 10 11 11 11 11 13 12 12 13 15 19 19 20 20 15 10 9 9 10 11 11 12 10 11 13 18 16 14 15 15 17 17 19 17 14 14 14 14 15 16 16 13 8 10 13 11 12 13 13 15 17 19 20 21 21 18 16 17 14 12 13 13 13
12 11 12 12 11 10 10 11 12 11 11 11 11 12 13 12 10 10 10 9 10 10 10 10 12 13 13 14 16 16 14 16 20 22 22 21 15 9 9 9 10 11 11 11 11 10 12 13 18 18 16 15 17 18 22 18 14 14 14 13 16 18 17 12 10 10 10 10 11 10 10 14 13 12 13 22 23 17 14 13 12 14 14 10 9
12 13 13 12 9 9 11 12 13 12 13 13 12 12 12 12 12 10 9 8 9 10 11 11 14 14 13 13 13 14 15 16 18 24 23 22 20 11 8 8 10 12 11 11 11 10 11 11 13 18 23 23 20 21 23 24 17 14 13 14 16 20 10 9 11 12 13 13 12 13 14 13 12 11 11 13 14 14 9 10 12 13 12 12 11
13 12 12 11 11 14 13 13 14 14 13 14 13 13 11 12 12 11 12 9 10 11 13 14 14 15 15 15 15 16 15 16 18 24 24 24 22 17 9 11 12 12 12 11 10 11 11 10 10 14 20 22 23 23 24 25 24 16 15 16 17 12 10 11 15 17 14 13 13 13 12 12 12 12 13 13 12 12 10 8 6 9 11 12 11
12 12 12 13 14 14 15 14 14 14 14 13 14 14 13 13 13 13 11 13 15 16 15 14 13 16 16 17 16 17 18 22 18 22 26 26 25 23 14 12 13 12 12 11 11 11 13 12 11 12 18 21 24 24 25 25 27 17 16 20 19 17 14 13 11 11 13 12 11 12 12 12 12 12 12 11 10 11 10 8 7 5 6 7 11
13 14 14 16 16 17 16 16 15 13 14 14 15 16 15 14 14 13 14 15 16 18 18 17 16 14 14 13 15 16 16 17 23 20 24 27 27 25 25 19 21 15 12 13 13 13 11 12 13 17 17 21 23 24 24 26 23 18 23 22 20 21 19 12 12 12 12 12 12 13 13 13 12 12 11 10 8 11 9 8 8 7 7 5 5
16 16 16 17 18 18 18 17 17 16 16 16 15 16 16 15 14 12 14 14 14 14 14 14 13 15 16 15 15 16 16 15 17 25 22 27 26 27 27 27 25 16 13 13 12 12 12 13 13 18 17 19 23 23 23 23 17 23 25 26 26 21 14 13 14 14 13 12 13 14 14 12 11 10 11 8 7 8 9 9 8 8 8 6 7
16 17 18 17 18 17 16 16 17 17 16 16 17 17 17 16 15 13 14 13 15 16 14 14 15 14 15 15 15 16 17 16 15 18 24 23 28 29 28 29 27 26 17 13 14 14 16 22 20 17 16 19 23 23 21 24 29 26 25 26 23 13 13 13 14 13 14 15 15 13 12 12 12 11 9 11 11 10 9 7 7 7 7 7 6
17 18 18 16 16 17 18 18 17 16 17 15 16 16 17 16 17 16 15 15 16 16 16 15 15 15 15 15 15 17 17 16 16 15 15 17 19 25 29 27 26 26 23 16 18 23 24 23 26 25 18 18 15 13 12 13 22 28 28 24 15 13 12 12 12 14 15 15 13 12 11 9 9 9 11 11 11 10 10 10 10 8 9 10 9
17 17 17 16 17 16 16 15 15 15 15 14 13 13 14 14 14 15 15 14 14 14 15 15 15 15 16 15 16 16 17 15 16 15 15 16 15 14 15 16 21 23 18 15 17 17 19 20 16 16 13 18 19 17 16 15 13 15 14 13 13 12 12 12 13 14 13 12 11 9 8 9 9 10 11 12 10 8 10 10 10 9 9 8 7
16 16 17 15 15 14 15 19 18 15 14 13 14 14 13 13 14 15 14 14 14 16 15 15 16 15 15 15 15 15 16 16 16 15 16 14 13 12 11 11 11 11 12 12 12 13 12 13 17 14 12 12 13 12 12 11 11 11 11 11 12 11 12 14 13 12 12 12 11 9 9 10 12 11 10 9 9 9 9 9 10 9 8 9 7
17 18 16 15 14 14 14 14 14 14 15 15 14 14 14 15 15 16 16 14 15 17 17 18 18 16 15 16 17 17 17 18 18 18 20 22 20 16 14 12 10 11 13 17 13 10 9 10 10 12 11 12 11 12 11 11 11 12 12 11 11 10 9 9 13 13 11 10 11 11 11 10 10 10 10 10 9 9 8 8 7 10 8 6 5
17 16 14 14 15 14 13 13 13 14 15 15 15 15 18 24 21 18 17 23 30 32 28 21 19 16 16 16 15 17 17 17 23 29 28 28 29 30 27 27 23 16 16 21 15 10 11 11 12 10 11 11 12 11 11 12 11 11 11 12 11 10 10 10 11 11 10 11 11 11 11 11 11 11 11 10 8 8 8 9 9 9 10 7 9
16 15 14 13 15 15 15 15 14 14 14 15 15 16 16 14 22 29 30 30 30 31 32 34 36 34 26 22 21 34 36 38 36 34 33 32 31 31 30 28 29 28 25 15 13 12 11 12 12 11 9 11 8 10 10 12 12 11 11 11 11 11 10 10 10 10 11 11 11 11 12 12 13 12 12 11 11 9 8 6 7 8 7 8 7
16 15 15 15 16 16 15 15 15 15 14 14 15 16 16 16 16 20 26 28 29 30 30 32 33 32 34 32 27 20 26 32 34 34 34 34 33 32 32 31 32 32 30 27 15 11 11 12 9 8 10 9 13 13 11 12 12 11 10 11 11 10 10 10 10 11 11 11 11 11 11 11 11 12 11 11 11 10 9 9 6 6 7 7 7
17 17 16 16 15 16 15 15 15 14 15 15 15 15 16 16 17 16 15 22 27 28 30 31 32 32 33 33 34 32 32 33 36 36 35 33 32 30 31 33 33 32 31 22 15 13 12 13 9 10 12 10 12 12 13 11 11 11 11 11 10 9 9 9 11 11 11 12 11 11 11 11 10 11 11 11 12 11 9 8 8 7 8 8 8
16 15 15 16 16 15 15 14 14 14 14 14 14 15 15 16 16 16 17 15 15 19 23 27 28 30 31 31 32 32 31 31 31 32 32 31 32 31 30 24 29 31 27 17 15 14 13 13 12 11 11 11 11 12 11 10 9 9 9 8 7 8 9 10 11 11 10 11 11 11 11 11 11 12 11 11 9 10 10 9 10 10 9 8 8
16 18 25 21 14 14 14 14 14 14 14 14 14 14 15 15 15 16 16 16 16 16 15 15 20 25 22 22 26 30 31 31 31 29 30 30 30 30 28 20 19 14 15 17 17 15 14 12 12 12 10 10 11 11 11 10 8 8 8 8 8 9 9 10 11 10 11 11 11 11 12 12 12 12 13 13 11 11 8 8 8 9 9 8 6
15 14 15 16 14 13 13 13 13 13 14 14 14 14 15 15 15 15 15 16 16 16 15 14 13 17 29 28 30 29 30 29 27 28 27 28 27 25 17 16 14 14 13 12 14 15 13 10 10 10 10 10 10 9 9 9 8 8 8 9 10 10 10 11 11 11 10 11 11 12 12 11 11 11 10 11 11 11 10 8 9 7 7 6 7
13 13 13 13 13 13 13 13 13 14 15 16 15 15 14 15 15 14 14 14 15 15 16 15 14 14 17 16 19 24 27 26 26 27 29 31 33 21 14 13 12 13 13 13 13 14 14 11 8 8 8 9 9 9 8 8 8 8 8 9 9 10 11 11 11 11 12 10 10 11 12 12 12 12 14 13 10 8 7 7 6 7 6 8 8
13 12 13 13 13 14 15 14 15 19 16 14 14 14 14 14 14 14 15 15 15 15 15 15 15 15 15 15 17 15 17 23 27 23 23 24 15 9 10 10 12 15 15 14 13 12 12 11 8 8 8 8 9 8 8 8 8 8 9 8 7 7 12 11 13 11 10 10 11 11 10 11 11 12 10 9 7 7 7 7 8 9 8 9 7
11 17 21 23 19 15 14 14 15 14 14 14 13 14 14 14 14 14 13 13 14 14 14 13 14 14 14 13 13 13 16 13 11 12 13 14 12 8 8 10 12 14 15 14 12 10 10 9 6 8 8 8 9 9 9 9 9 9 9 9 9 9 10 8 9 9 9 10 10 10 11 11 12 13 14 9 6 6 7 9 8 8 8 7 7
12 12 14 21 15 15 14 14 14 14 14 13 13 12 13 13 13 13 13 13 14 13 12 13 13 13 13 12 12 11 12 13 12 12 12 12 13 12 8 7 8 9 10 10 11 10 8 5 6 7 7 7 8 9 9 10 10 10 10 10 10 10 10 10 10 11 11 10 10 10 11 12 14 13 10 10 10 10 9 9 9 7 7 7 6
11 12 13 15 16 14 14 14 13 13 12 13 12 12 12 13 13 13 12 12 12 13 13 12 12 12 12 16 24 22 14 14 14 13 11 11 11 11 10 8 8 10 10 9 7 5 6 6 6 6 6 7 7 9 9 10 10 10 10 9 9 9 9 9 9 9 10 11 11 11 11 13 13 13 12 10 12 10 9 8 7 6 6 6 6
11 12 12 12 14 12 12 13 13 14 13 13 13 11 12 12 12 11 12 11 12 12 12 12 12 11 16 27 25 27 16 12 12 12 10 9 10 9 5 4 5 7 3 3 6 7 7 7 7 7 8 8 9 9 9 10 10 10 10 10 10 10 9 9 9 10 10 10 11 13 15 15 13 11 11 12 8 9 9 8 7 7 6 6 5
12 12 12 12 12 12 12 13 13 13 13 12 11 12 13 13 12 12 11 11 11 11 11 11 11 10 13 20 21 24 14 11 10 9 9 7 7 7 5 4 4 5 4 2 4 7 8 9 8 8 10 11 12 13 13 11 11 10 10 10 10 11 10 9 9 9 9 9 11 14 14 12 11 9 9 7 8 9 9 9 8 7 6 6 6
11 11 12 12 12 12 12 12 12 12 12 14 16 13 12 10 11 10 10 11 11 10 10 11 11 11 11 13 14 12 8 8 7 6 7 6 6 6 6 6 6 6 5 4 4 4 6 7 6 5 4 4 4 5 6 8 10 11 11 11 10 11 11 10 11 11 12 11 13 14 11 11 12 10 9 9 9 9 9 8 8 7 7 6 6
10 10 11 11 11 11 12 12 12 12 13 13 11 11 12 11 11 11 10 10 11 11 11 11 12 11 11 9 9 9 9 8 8 7 6 7 7 7 7 7 7 7 7 6 6 5 5 6 6 7 7 5 6 6 6 6 5 6 8 11 12 12 12 12 12 11 12 14 13 11 8 8 10 10 10 9 9 8 8 8 7 8 7 7 7
9 10 11 11 11 12 12 12 12 12 12 11 12 11 11 11 10 10 10 10 10 10 10 9 9 9 9 8 8 9 8 8 8 8 7 7 7 7 7 7 7 7 7 8 8 8 8 7 6 6 7 7 7 7 7 7 7 6 7 6 6 6 6 7 9 11 12 14 16 14 12 11 10 9 9 9 8 7 7 7 6 6 6 6 6
9 9 10 10 11 12 12 12 11 11 12 11 11 11 11 11 10 10 10 11 10 10 9 9 9 8 8 8 8 8 8 8 8 8 8 8 8 7 7 7 7 8 8 8 8 8 9 9 8 8 8 8 9 9 8 7 7 7 7 7 8 9 8 8 9 11 12 12 12 13 13 12 11 9 10 9 8 7 7 7 6 6 5 5 4
8 9 9 10 10 10 11 11 12 13 11 11 11 11 11 11 10 10 10 10 10 9 9 9 9 9 9 8 8 8 8 7 7 7 8 8 7 7 7 7 7 7 7 9 8 8 8 8 8 9 9 9 9 9 8 8 8 8 7 7 7 9 12 13 11 11 10 10 11 11 11 10 9 9 8 9 8 7 7 6 5 4 4 4 4
8 8 8 9 9 9 10 11 11 11 11 11 12 12 11 11 10 10 10 10 9 9 9 9 9 9 8 8 8 8 7 7 7 7 7 7 7 7 7 7 7 7 7 7 8 9 9 9 9 9 9 9 9 9 9 10 10 9 9 8 13 21 17 14 10 10 11 10 9 9 9 10 10 9 8 7 7 6 6 5 5 5 5 5 4
7 8 8 9 9 9 9 9 9 9 10 10 10 10 10 10 10 10 10 10 9 9 9 9 9 10 10 10 10 9 9 9 9 8 8 8 8 8 8 8 8 8 8 8 8 8 8 8 9 10 9 9 10 10 9 9 8 8 7 11 20 20 17 17 16 14 10 8 9 8 9 9 9 8 7 6 6 6 6 5 4 4 3 3 3
8 8 7 8 8 8 8 9 9 9 9 10 10 10 11 10 10 10 10 10 9 10 10 9 9 9 9 9 9 9 9 9 9 8 8 8 8 8 8 9 9 9 9 9 9 9 10 11 11 9 10 9 7 9 9 9 8 10 14 19 19 19 17 13 11 13 14 9 8 8 8 9 9 8 7 6 5 5 6 5 4 3 3 3 3
Wind_Direction
13 9 6 6 10 12 9 10 10 7 1 360 352 346 344 334 340 333 320 313 311 299 292 289 288 282 273 261 248 240 235 234 229 230 232 234 232 233 234 230 231 234 231 232 226 227 230 232 231 228 222 224 227 224 225 221 219 226 224 223 225 218 213 222 229 210 32 93 145 148 158 156 170 177 171 165 158 184 188 175 167 157 165 200 206
358 352 356 354 359 356 349 345 353 355 4 6 3 2 353 350 344 339 335 325 326 316 310 301 292 287 284 280 273 259 247 239 232 228 231 234 235 231 235 235 236 236 234 236 228 224 227 233 236 232 224 228 229 225 223 219 218 221 223 219 224 221 211 217 226 216 173 146 129 121 149 168 168 175 180 177 172 174 183 181 171 157 170 171 214
346 346 346 350 356 357 355 348 342 338 344 349 360 356 358 358 351 350 338 330 325 318 314 319 313 309 301 290 281 275 267 259 247 235 232 233 237 235 231 232 235 238 237 235 233 230 231 233 233 229 223 227 230 230 226 221 216 217 220 215 221 220 212 212 215 223 180 183 157 155 166 178 183 178 182 184 167 170 176 185 175 170 165 186 199
340 341 339 344 344 346 348 347 349 354 355 352 354 349 348 355 345 349 342 329 329 322 323 320 318 313 310 300 291 284 276 266 260 250 245 241 240 240 235 231 234 239 241 241 237 234 234 235 235 229 224 230 232 228 226 223 219 218 218 216 218 219 213 207 215 220 186 168 179 173 172 167 185 163 170 164 165 174 177 166 168 174 173 190 207
334 332 332 336 340 347 345 347 345 348 351 348 349 346 351 349 344 339 334 331 330 332 327 332 327 320 310 305 301 294 287 279 273 266 257 247 246 247 245 239 236 237 239 242 242 237 237 237 239 229 224 231 235 229 226 222 223 221 222 219 215 215 208 204 211 212 195 183 163 167 156 162 164 157 165 166 165 165 166 175 176 176 188 191 196
312 321 320 326 327 337 338 340 341 344 343 340 342 344 343 341 341 339 339 334 333 333 330 331 330 319 313 301 294 294 294 289 282 278 273 265 259 254 252 249 246 242 240 241 242 240 242 241 240 233 228 229 235 233 229 225 224 224 226 224 218 212 208 207 205 208 210 191 167 153 169 165 170 177 174 170 169 166 171 180 178 186 183 197 203
321 321 323 323 321 330 334 336 335 335 335 333 333 332 333 329 325 333 333 328 334 336 333 326 315 305 298 294 287 286 286 286 285 282 279 275 271 270 266 259 254 249 248 247 243 242 241 242 242 235 234 234 237 235 231 229 226 227 226 224 220 215 213 208 199 201 207 190 181 175 165 178 176 173 172 172 177 177 172 167 196 193 193 195 209
317 318 316 320 317 324 324 321 324 328 329 329 331 329 328 326 325 320 319 324 331 336 329 325 317 305 293 287 282 277 269 271 273 275 276 277 276 272 269 267 265 260 255 251 248 245 241 241 241 238 237 239 238 237 228 229 226 231 229 224 219 216 216 210 201 202 203 200 186 180 175 168 173 158 142 162 174 192 194 183 183 184 197 199 205
324 324 325 320 322 319 316 318 314 323 325 326 329 331 328 324 323 320 318 311 308 309 309 312 310 305 298 291 287 277 266 255 256 264 272 271 266 267 269 270 269 268 265 259 253 250 248 244 240 237 236 237 236 235 232 227 226 230 228 218 216 213 215 213 206 204 206 205 195 178 172 177 181 168 170 179 191 190 178 182 199 194 182 186 204
330 327 327 326 328 327 318 316 317 322 326 325 330 329 324 319 316 315 313 310 310 301 291 288 288 288 295 293 285 277 267 255 244 246 251 258 265 266 265 262 264 267 270 270 265 257 253 249 242 241 238 235 234 234 234 233 231 230 228 212 209 213 213 212 210 208 206 207 204 187 187 196 188 188 186 192 182 158 172 181 189 187 164 196 199
321 323 320 322 325 323 321 319 324 321 315 318 317 325 321 318 314 311 307 304 305 303 302 299 289 290 290 288 289 285 274 265 263 257 252 256 257 258 257 259 257 259 261 264 267 266 262 256 253 245 239 239 238 235 232 232 234 234 232 224 213 209 209 212 215 206 204 211 209 201 203 203 197 191 189 177 176 184 182 183 182 172 175 176 200
306 306 311 314 318 319 317 317 315 312 313 312 316 312 308 304 302 303 305 308 308 309 303 297 298 297 289 288 286 283 285 278 274 273 271 273 267 260 256 255 253 254 256 258 261 262 262 263 261 256 242 240 238 234 233 231 230 231 231 229 226 219 214 211 211 211 208 212 211 213 209 209 196 185 183 172 180 182 187 185 188 189 182 195 200
288 292 296 301 302 305 307 307 301 293 283 283 287 295 303 310 308 297 291 296 302 302 304 305 300 296 293 293 290 285 279 273 274 277 274 271 271 267 261 255 252 252 252 254 257 258 260 261 263 256 252 241 233 232 233 232 230 228 228 230 229 227 224 221 220 216 207 213 214 216 212 205 196 197 190 181 173 182 183 183 189 196 197 199 204
269 276 278 276 283 287 295 295 295 294 299 298 295 291 298 298 298 297 295 293 289 291 290 290 293 296 297 298 294 288 280 278 278 274 273 272 273 271 260 259 256 254 254 252 253 255 255 258 261 259 253 244 237 234 231 229 226 225 228 227 228 231 230 228 226 224 219 217 218 223 216 196 203 201 188 178 178 186 181 188 185 186 192 196 167
271 275 280 279 279 279 279 280 280 283 288 293 299 301 303 304 304 301 289 283 287 290 292 290 285 284 290 293 291 287 283 277 276 273 274 275 274 274 265 261 259 256 255 253 252 252 252 252 254 258 255 241 239 238 232 228 224 222 223 225 226 225 223 226 226 226 224 225 228 231 223 201 209 200 180 186 190 191 190 188 180 176 141 92 87
272 275 277 275 274 268 273 275 273 264 264 274 284 287 289 293 299 299 290 284 282 285 282 283 290 291 285 279 280 282 282 280 278 274 272 274 276 275 270 264 262 259 258 255 252 250 249 247 251 253 252 248 244 238 230 223 217 220 225 228 229 228 229 225 223 223 225 223 224 224 224 206 190 180 179 176 176 152 117 107 109 131 140 151 164
275 275 276 276 277 277 276 275 274 267 256 267 271 274 279 285 287 286 282 281 283 282 284 284 283 282 286 284 279 277 275 274 275 273 272 272 273 268 269 268 266 264 261 259 256 253 248 243 244 250 250 248 238 227 219 214 219 219 223 227 228 229 234 227 214 218 214 207 213 213 207 191 183 175 177 172 168 154 142 145 171 161 157 175 185
280 283 281 279 280 277 275 275 275 269 264 266 268 265 270 275 278 277 273 275 277 281 283 284 282 278 276 278 274 274 276 272 272 272 271 271 265 262 263 264 263 263 266 262 258 255 250 244 237 245 250 249 242 219 218 209 221 223 224 225 229 233 235 226 215 215 196 188 187 189 186 186 184 181 180 176 167 160 166 183 175 157 181 188 184
294 294 291 287 287 289 288 285 279 275 270 270 273 277 278 275 277 278 268 266 271 278 276 276 280 280 276 273 274 272 271 274 273 270 267 265 262 254 256 259 261 261 261 263 260 257 259 251 240 241 247 248 238 223 219 211 220 222 225 224 230 233 232 212 204 205 200 199 202 187 196 189 187 182 185 179 172 174 185 179 162 173 182 181 167
304 301 296 294 297 297 295 290 284 282 282 283 281 280 280 276 272 269 265 266 274 274 274 271 275 277 277 277 276 276 275 274 272 269 263 259 254 247 248 252 255 260 258 261 264 260 258 259 246 238 244 244 236 227 222 215 216 222 221 226 229 235 216 189 199 202 204 201 202 201 202 195 188 185 184 182 178 178 173 164 171 174 177 174 176
307 303 303 303 301 298 295 292 292 289 286 288 286 280 274 274 277 274 273 271 270 271 271 273 274 275 275 274 274 271 266 266 268 267 264 258 249 241 242 242 249 254 260 259 257 262 262 257 254 238 234 235 233 224 221 221 218 217 219 226 226 227 184 193 205 192 200 201 200 200 200 197 195 194 190 185 181 176 169 158 147 169 172 171 173
312 308 302 298 297 295 293 291 289 286 284 282 280 278 276 274 273 275 273 272 273 272 272 272 271 272 271 270 269 268 266 263 264 266 264 259 253 240 236 241 239 249 253 254 254 255 255 257 257 241 232 232 233 227 223 221 221 220 221 225 224 210 194 203 199 195 202 203 199 198 196 196 195 192 190 186 177 170 164 149 145 131 162 175 177
308 300 295 295 295 294 293 291 290 287 284 282 279 278 278 275 272 271 271 272 272 273 270 268 266 266 268 268 266 267 264 264 259 257 256 255 252 246 237 237 241 241 243 251 250 252 253 254 255 250 234 223 227 227 226 224 223 225 226 225 221 203 199 203 200 199 201 199 198 202 196 195 191 191 182 173 163 158 151 133 130 130 141 106 98
308 302 301 301 302 300 299 298 295 292 289 288 284 279 277 274 271 264 264 266 267 263 266 265 262 263 268 267 264 265 266 264 261 257 254 254 253 249 243 237 236 237 235 245 250 250 253 252 251 250 233 220 224 227 227 226 224 228 230 233 229 216 201 206 204 204 198 196 201 201 198 192 184 179 171 151 136 135 130 129 126 130 124 118 113
311 305 305 305 303 302 301 298 296 294 291 288 286 282 277 277 273 265 260 252 258 261 258 258 259 260 261 260 265 271 271 271 269 266 261 252 253 250 245 242 239 236 238 242 246 248 246 250 255 253 232 222 223 225 228 228 229 229 228 230 227 216 211 204 205 196 199 200 201 199 193 188 183 171 143 137 132 125 128 128 117 115 112 98 95
306 302 303 300 300 302 302 299 295 292 291 289 284 280 279 279 274 273 268 268 262 258 256 255 254 257 259 260 260 264 268 268 269 267 266 265 260 255 251 246 242 239 236 237 240 246 250 252 253 254 230 218 221 222 225 227 230 233 234 232 225 215 208 205 199 200 204 201 195 191 190 173 166 160 154 144 146 156 150 141 136 132 130 127 107
298 297 298 299 298 299 296 294 296 296 293 290 284 282 282 281 277 276 274 272 272 269 267 264 262 260 259 261 265 267 266 266 267 267 266 265 262 257 252 250 246 244 240 241 244 249 251 252 252 246 232 225 220 222 225 226 225 225 227 226 226 219 206 202 200 200 203 196 190 177 170 161 149 146 160 163 154 148 152 145 142 145 140 143 121
295 295 297 296 294 295 292 291 292 292 293 291 290 288 284 281 279 276 276 278 279 278 276 272 268 267 268 267 268 267 264 264 259 259 262 262 268 265 256 250 246 237 239 237 236 242 246 252 253 251 237 227 225 221 222 219 217 217 216 217 220 220 210 202 196 200 197 191 179 158 152 160 164 166 157 155 153 154 153 150 148 143 143 138 114
297 295 296 294 292 292 291 291 290 290 290 287 281 279 282 283 280 278 274 274 273 273 274 273 270 271 271 269 268 267 265 262 260 263 264 265 265 269 265 258 251 246 237 234 236 236 237 241 244 238 229 221 217 218 217 215 213 212 210 211 213 212 203 189 196 197 187 171 170 161 162 156 159 157 156 154 156 153 154 141 143 142 141 132 119
299 298 297 295 294 293 293 292 290 288 287 286 287 282 274 275 277 277 279 275 273 272 272 272 272 268 266 262 260 265 267 267 272 271 268 267 266 263 261 262 258 249 240 235 230 230 230 234 232 221 217 214 215 213 210 210 212 211 211 206 205 206 200 195 193 189 171 171 162 153 161 160 158 161 160 157 142 147 150 148 147 145 146 152 156
299 297 296 294 295 296 295 292 289 287 286 286 286 287 290 281 277 279 279 281 280 278 278 278 278 278 276 277 271 266 266 268 269 269 270 269 267 268 269 269 266 264 258 250 240 231 231 233 229 215 206 207 194 198 197 207 207 206 204 202 203 201 194 187 186 177 168 163 164 161 163 163 166 164 161 155 151 147 140 134 134 145 145 150 150
296 296 296 294 295 293 289 288 288 287 287 285 286 288 288 290 286 278 280 283 283 283 282 282 282 283 283 282 282 279 278 278 276 272 268 265 263 264 264 263 260 259 259 252 243 230 227 233 221 207 206 205 208 205 197 207 210 205 201 199 200 194 184 183 174 168 167 163 161 163 164 167 165 162 159 154 151 146 143 145 140 143 150 160 161
294 293 291 291 290 289 289 288 287 287 287 287 287 287 288 289 290 293 284 282 285 286 285 285 284 284 284 284 284 286 289 287 283 281 280 280 278 272 264 259 256 255 255 251 239 233 222 225 218 212 214 206 207 202 207 210 209 204 201 198 192 177 174 164 157 164 167 164 160 163 165 162 161 158 156 153 155 146 143 142 151 147 156 152 162
286 288 288 289 289 288 286 284 285 286 285 286 286 287 286 286 288 290 294 295 289 284 282 283 284 285 285 285 285 285 285 284 286 287 284 281 279 279 279 279 273 259 247 243 239 229 224 215 217 220 221 216 210 206 208 210 203 201 195 189 169 156 154 147 158 161 158 158 163 164 158 160 158 156 155 154 149 138 144 151 153 155 162 161 154
289 286 286 286 285 284 283 284 285 284 285 285 285 285 285 287 287 289 290 291 292 291 292 287 285 284 284 284 284 284 283 283 281 281 282 279 275 273 276 274 267 266 257 245 237 228 222 218 218 222 218 213 207 205 209 204 194 187 179 162 153 151 148 154 158 158 158 160 160 162 161 159 163 162 159 156 154 152 144 146 153 156 154 147 142
288 288 288 287 285 283 284 285 284 284 284 283 283 283 284 284 285 284 285 285 286 288 288 286 288 290 290 288 285 286 287 288 286 284 282 278 272 265 256 253 263 261 257 253 240 230 224 218 216 218 210 207 201 203 204 195 185 178 168 162 159 158 155 156 157 158 161 160 160 158 156 157 158 155 151 146 147 147 150 141 146 139 137 133 147
290 288 286 285 284 283 284 283 281 280 280 282 283 283 282 282 281 282 282 284 284 285 286 289 289 288 288 287 290 292 294 296 299 301 299 293 280 263 241 246 256 265 263 255 242 228 224 219 213 212 196 199 194 196 188 179 169 162 159 160 157 157 162 160 159 156 157 157 157 156 157 157 155 158 155 151 141 128 124 126 118 131 133 146 147
286 285 286 287 287 287 286 284 284 285 285 283 282 282 282 280 280 280 282 283 283 285 286 287 289 290 294 294 298 298 301 300 300 297 295 291 278 240 232 234 243 250 252 249 243 226 220 220 204 201 193 186 189 177 168 161 159 153 149 144 144 152 155 155 159 152 151 148 151 152 150 152 154 152 138 134 124 127 125 129 137 146 149 158 155
295 293 293 294 294 292 288 288 286 286 284 284 281 281 280 279 280 280 279 278 281 281 282 284 286 287 287 291 296 299 300 298 297 294 298 302 297 269 240 236 239 244 250 245 225 216 210 211 179 186 186 186 178 167 155 152 148 142 139 137 144 150 152 142 145 147 146 147 149 151 150 153 149 136 139 124 102 108 123 134 142 145 149 160 165
298 301 298 298 297 293 290 287 285 283 280 279 279 276 277 278 278 278 278 281 280 279 280 281 282 282 286 288 289 293 292 290 288 287 291 293 297 296 290 288 288 280 260 237 221 212 207 166 155 173 177 170 160 152 151 145 145 142 146 154 154 156 157 154 154 155 153 149 148 149 150 148 140 124 126 133 133 134 136 142 147 149 149 152 157
299 297 297 298 295 295 291 288 284 280 278 276 277 278 275 274 274 273 272 273 273 278 278 277 278 278 280 282 285 286 285 285 284 281 277 281 289 293 284 284 291 288 259 221 199 167 140 133 140 142 137 140 144 142 141 140 140 149 152 149 147 151 148 147 149 146 145 146 148 146 148 127 126 133 110 137 144 135 130 133 134 135 145 146 155
300 300 300 300 300 298 295 295 292 291 288 282 276 273 274 278 275 271 271 270 274 275 277 279 280 279 282 286 288 289 287 281 282 280 284 295 305 305 314 326 324 303 280 110 119 118 112 117 125 132 136 135 137 141 140 146 151 148 147 149 150 145 145 149 151 148 148 149 148 147 140 132 140 137 140 142 123 129 135 136 139 141 142 151 151
304 302 302 304 305 304 302 299 298 298 297 296 291 286 283 279 278 275 271 272 273 274 276 278 279 281 283 287 291 293 283 273 282 299 311 315 317 318 323 339 339 339 1 65 104 125 133 135 139 148 152 156 158 161 163 158 152 146 147 148 147 149 147 144 142 142 140 141 143 136 135 139 134 128 132 122 131 136 136 140 140 146 150 154 156
307 307 307 307 306 304 305 305 305 304 303 303 302 301 299 289 280 277 276 278 278 277 276 276 277 283 285 290 293 300 313 323 331 331 334 335 336 339 344 350 356 359 360 23 47 78 109 116 116 106 98 105 100 104 121 138 144 149 148 144 146 149 147 147 149 150 147 144 139 119 95 119 132 127 122 132 137 137 140 142 146 149 152 154 160
310 311 312 311 311 311 311 311 311 310 311 311 314 313 315 321 320 315 303 293 293 294 292 293 297 300 306 320 335 338 340 341 345 350 349 349 352 355 351 352 1 7 14 20 26 40 67 84 93 100 98 83 84 90 101 110 119 136 143 146 149 155 159 159 157 151 148 144 142 131 113 123 130 134 134 137 140 141 141 149 150 150 154 162 167
313 314 313 315 315 315 315 316 318 317 317 318 319 321 323 324 325 328 330 334 333 332 332 335 337 339 341 339 340 345 347 349 352 352 353 357 357 356 357 5 14 18 19 21 23 33 46 56 69 76 81 81 88 89 92 101 106 98 100 100 114 119 122 128 131 137 144 141 132 130 130 129 127 134 131 134 133 136 137 141 146 152 158 163 166
318 317 318 317 318 316 317 319 319 322 323 323 323 323 325 326 328 331 335 338 337 339 339 339 341 344 344 344 346 349 350 355 354 353 351 355 359 2 4 6 14 28 27 35 43 45 49 56 63 71 79 85 82 75 72 73 82 85 85 94 103 110 116 125 131 133 128 132 132 129 124 129 128 129 126 129 132 135 139 146 151 157 156 159 159
321 322 321 321 321 321 321 323 322 324 325 325 326 326 327 329 330 335 339 340 343 346 345 346 346 345 347 351 354 354 355 356 357 357 359 0 6 6 10 25 29 31 41 49 46 48 53 59 65 72 75 78 82 85 81 81 75 78 79 90 99 117 119 121 121 118 119 124 127 128 128 127 129 128 130 136 139 141 140 143 144 147 157 154 167
328 326 325 327 326 326 326 326 326 326 327 328 327 328 331 333 337 340 341 343 344 348 349 348 347 348 350 353 355 358 357 359 2 4 5 6 6 12 17 23 33 38 44 44 49 60 61 62 66 68 74 76 77 84 87 86 78 80 91 94 110 115 107 100 103 106 111 115 114 116 116 120 125 128 126 126 132 134 135 140 145 153 163 170 176
328 327 325 327 328 329 327 326 326 326 328 330 330 331 333 336 339 343 344 345 347 349 353 352 352 355 356 357 2 3 4 6 10 12 11 14 14 15 23 28 35 45 50 54 59 60 61 63 70 76 74 79 81 85 85 83 85 89 85 104 110 104 98 97 97 98 100 109 111 115 117 117 115 118 120 123 122 128 128 138 144 154 162 171 181
326 327 326 328 328 328 329 333 333 334 335 334 336 337 339 341 341 341 345 347 352 354 355 355 357 1 7 8 11 15 17 17 18 19 20 22 20 25 29 42 45 53 60 60 65 62 70 74 78 75 79 70 59 62 60 74 80 92 99 100 99 102 98 94 95 96 97 95 100 104 114 118 122 117 124 124 127 125 146 148 159 168 175 179 190